owner,sensor,date,latitude,longitude,air_temperature,qcFlag 
WAVCIS,ioos:station:WAVCIS:CSI16:1,2011-09-01T00:00:00Z,29.4012,-89.0355,29.14,11111222 
WAVCIS,ioos:station:WAVCIS:CSI16:1,2011-09-01T01:00:00Z,29.4012,-89.0355,29.28,11111222 
WAVCIS,ioos:station:WAVCIS:CSI16:1,2011-09-01T02:00:00Z,29.4012,-89.0355,29.13,11111222 
WAVCIS,ioos:station:WAVCIS:CSI16:1,2011-09-01T03:00:00Z,29.4012,-89.0355,29.41,11111222 
WAVCIS,ioos:station:WAVCIS:CSI16:1,2011-09-01T04:00:00Z,29.4012,-89.0355,28.77,11111222 
WAVCIS,ioos:station:WAVCIS:CSI16:1,2011-09-01T05:00:00Z,29.4012,-89.0355,29.24,11111222 
WAVCIS,ioos:station:WAVCIS:CSI16:1,2011-09-01T06:00:00Z,29.4012,-89.0355,29.13,11111222 
WAVCIS,ioos:station:WAVCIS:CSI16:1,2011-09-01T07:00:00Z,29.4012,-89.0355,29.08,11111222 
WAVCIS,ioos:station:WAVCIS:CSI16:1,2011-09-01T08:00:00Z,29.4012,-89.0355,28.94,11111222 
WAVCIS,ioos:station:WAVCIS:CSI16:1,2011-09-01T09:00:00Z,29.4012,-89.0355,28.83,11111222 
WAVCIS,ioos:station:WAVCIS:CSI16:1,2011-09-01T10:00:00Z,29.4012,-89.0355,28.41,11111222 
WAVCIS,ioos:station:WAVCIS:CSI16:1,2011-09-01T11:00:00Z,29.4012,-89.0355,27.36,11111222 
WAVCIS,ioos:station:WAVCIS:CSI16:1,2011-09-01T12:00:00Z,29.4012,-89.0355,28.17,11111222 
WAVCIS,ioos:station:WAVCIS:CSI16:1,2011-09-01T13:00:00Z,29.4012,-89.0355,26.47,11111222 
WAVCIS,ioos:station:WAVCIS:CSI16:1,2011-09-01T14:00:00Z,29.4012,-89.0355,25.7,11111222 
WAVCIS,ioos:station:WAVCIS:CSI16:1,2011-09-01T15:00:00Z,29.4012,-89.0355,28.77,11111222 
WAVCIS,ioos:station:WAVCIS:CSI16:1,2011-09-01T16:00:00Z,29.4012,-89.0355,27.93,11111222 
WAVCIS,ioos:station:WAVCIS:CSI16:1,2011-09-01T17:00:00Z,29.4012,-89.0355,28.07,11111222 
WAVCIS,ioos:station:WAVCIS:CSI16:1,2011-09-01T18:00:00Z,29.4012,-89.0355,25.27,11111222 
WAVCIS,ioos:station:WAVCIS:CSI16:1,2011-09-01T19:00:00Z,29.4012,-89.0355,28.14,11111222 
WAVCIS,ioos:station:WAVCIS:CSI16:1,2011-09-01T20:00:00Z,29.4012,-89.0355,27.9,11111222 
WAVCIS,ioos:station:WAVCIS:CSI16:1,2011-09-01T21:00:00Z,29.4012,-89.0355,26.54,11111222 
WAVCIS,ioos:station:WAVCIS:CSI16:1,2011-09-01T22:00:00Z,29.4012,-89.0355,23.45,11111222 
WAVCIS,ioos:station:WAVCIS:CSI16:1,2011-09-01T23:00:00Z,29.4012,-89.0355,24.81,11111222 
WAVCIS,ioos:station:WAVCIS:CSI16:1,2011-09-02T00:00:00Z,29.4012,-89.0355,26.2,11111222 
WAVCIS,ioos:station:WAVCIS:CSI16:1,2011-09-02T01:00:00Z,29.4012,-89.0355,26.45,11111222 
WAVCIS,ioos:station:WAVCIS:CSI16:1,2011-09-02T02:00:00Z,29.4012,-89.0355,26.82,11111222 
WAVCIS,ioos:station:WAVCIS:CSI16:1,2011-09-02T03:00:00Z,29.4012,-89.0355,27.16,11111222 
WAVCIS,ioos:station:WAVCIS:CSI16:1,2011-09-02T04:00:00Z,29.4012,-89.0355,27.69,11111222 
WAVCIS,ioos:station:WAVCIS:CSI16:1,2011-09-02T05:00:00Z,29.4012,-89.0355,27.11,11111222 
WAVCIS,ioos:station:WAVCIS:CSI16:1,2011-09-02T06:00:00Z,29.4012,-89.0355,27.46,11111222 
WAVCIS,ioos:station:WAVCIS:CSI16:1,2011-09-02T07:00:00Z,29.4012,-89.0355,27.35,11111222 
WAVCIS,ioos:station:WAVCIS:CSI16:1,2011-09-02T08:00:00Z,29.4012,-89.0355,27.36,11111222 
WAVCIS,ioos:station:WAVCIS:CSI16:1,2011-09-02T09:00:00Z,29.4012,-89.0355,25.93,11111222 
WAVCIS,ioos:station:WAVCIS:CSI16:1,2011-09-02T10:00:00Z,29.4012,-89.0355,25.93,11111222 
WAVCIS,ioos:station:WAVCIS:CSI16:1,2011-09-02T11:00:00Z,29.4012,-89.0355,26.25,11111222 
WAVCIS,ioos:station:WAVCIS:CSI16:1,2011-09-02T12:00:00Z,29.4012,-89.0355,26.27,11111222 
WAVCIS,ioos:station:WAVCIS:CSI16:1,2011-09-02T13:00:00Z,29.4012,-89.0355,25.62,11111222 
WAVCIS,ioos:station:WAVCIS:CSI16:1,2011-09-02T14:00:00Z,29.4012,-89.0355,25.29,11111222 
WAVCIS,ioos:station:WAVCIS:CSI16:1,2011-09-02T15:00:00Z,29.4012,-89.0355,26.75,11111222 
WAVCIS,ioos:station:WAVCIS:CSI16:1,2011-09-02T16:00:00Z,29.4012,-89.0355,26.29,11111222 
WAVCIS,ioos:station:WAVCIS:CSI16:1,2011-09-02T17:00:00Z,29.4012,-89.0355,25.45,11111222 
WAVCIS,ioos:station:WAVCIS:CSI16:1,2011-09-02T18:00:00Z,29.4012,-89.0355,26.69,11111222 
WAVCIS,ioos:station:WAVCIS:CSI16:1,2011-09-02T19:00:00Z,29.4012,-89.0355,25.29,11111222 
WAVCIS,ioos:station:WAVCIS:CSI16:1,2011-09-02T20:00:00Z,29.4012,-89.0355,25.86,11111222 
WAVCIS,ioos:station:WAVCIS:CSI16:1,2011-09-02T21:00:00Z,29.4012,-89.0355,26.88,11111222 
WAVCIS,ioos:station:WAVCIS:CSI16:1,2011-09-02T22:00:00Z,29.4012,-89.0355,24.15,11111222 
WAVCIS,ioos:station:WAVCIS:CSI16:1,2011-09-02T23:00:00Z,29.4012,-89.0355,24.62,11111222 
WAVCIS,ioos:station:WAVCIS:CSI16:1,2011-09-03T00:00:00Z,29.4012,-89.0355,26.03,11111222 
WAVCIS,ioos:station:WAVCIS:CSI16:1,2011-09-03T01:00:00Z,29.4012,-89.0355,24.86,11111222 
WAVCIS,ioos:station:WAVCIS:CSI16:1,2011-09-03T02:00:00Z,29.4012,-89.0355,25.02,11111222 
WAVCIS,ioos:station:WAVCIS:CSI16:1,2011-09-03T03:00:00Z,29.4012,-89.0355,24.46,11111222 
WAVCIS,ioos:station:WAVCIS:CSI16:1,2011-09-03T04:00:00Z,29.4012,-89.0355,24.44,11111222 
WAVCIS,ioos:station:WAVCIS:CSI16:1,2011-09-03T05:00:00Z,29.4012,-89.0355,26.46,11111222 
WAVCIS,ioos:station:WAVCIS:CSI16:1,2011-09-03T06:00:00Z,29.4012,-89.0355,25.57,11111222 
WAVCIS,ioos:station:WAVCIS:CSI16:1,2011-09-03T07:00:00Z,29.4012,-89.0355,26.26,11111222 
WAVCIS,ioos:station:WAVCIS:CSI16:1,2011-09-03T08:00:00Z,29.4012,-89.0355,27.02,11111222 
WAVCIS,ioos:station:WAVCIS:CSI16:1,2011-09-03T09:00:00Z,29.4012,-89.0355,26.7,11111222 
WAVCIS,ioos:station:WAVCIS:CSI16:1,2011-09-03T10:00:00Z,29.4012,-89.0355,27.18,11111222 
WAVCIS,ioos:station:WAVCIS:CSI16:1,2011-09-03T11:00:00Z,29.4012,-89.0355,27.8,11111222 
WAVCIS,ioos:station:WAVCIS:CSI16:1,2011-09-03T12:00:00Z,29.4012,-89.0355,26.64,11111222 
WAVCIS,ioos:station:WAVCIS:CSI16:1,2011-09-03T13:00:00Z,29.4012,-89.0355,24.74,11111222 
WAVCIS,ioos:station:WAVCIS:CSI16:1,2011-09-03T14:00:00Z,29.4012,-89.0355,24.87,11111222 
WAVCIS,ioos:station:WAVCIS:CSI16:1,2011-09-03T15:00:00Z,29.4012,-89.0355,26.13,11111222 
WAVCIS,ioos:station:WAVCIS:CSI16:1,2011-09-03T16:00:00Z,29.4012,-89.0355,25.69,11111222 
WAVCIS,ioos:station:WAVCIS:CSI16:1,2011-09-03T17:00:00Z,29.4012,-89.0355,26.54,11111222 
WAVCIS,ioos:station:WAVCIS:CSI16:1,2011-09-03T18:00:00Z,29.4012,-89.0355,25.81,11111222 
WAVCIS,ioos:station:WAVCIS:CSI16:1,2011-09-03T19:00:00Z,29.4012,-89.0355,26.46,11111222 
WAVCIS,ioos:station:WAVCIS:CSI16:1,2011-09-03T20:00:00Z,29.4012,-89.0355,26.42,11111222 
WAVCIS,ioos:station:WAVCIS:CSI16:1,2011-09-03T21:00:00Z,29.4012,-89.0355,26.15,11111222 
WAVCIS,ioos:station:WAVCIS:CSI16:1,2011-09-03T22:00:00Z,29.4012,-89.0355,26.81,11111222 
WAVCIS,ioos:station:WAVCIS:CSI16:1,2011-09-03T23:00:00Z,29.4012,-89.0355,25.32,11111222 
WAVCIS,ioos:station:WAVCIS:CSI16:1,2011-09-04T00:00:00Z,29.4012,-89.0355,25.95,11111222 
WAVCIS,ioos:station:WAVCIS:CSI16:1,2011-09-04T01:00:00Z,29.4012,-89.0355,27.4,11111222 
WAVCIS,ioos:station:WAVCIS:CSI16:1,2011-09-04T02:00:00Z,29.4012,-89.0355,27.55,11111222 
WAVCIS,ioos:station:WAVCIS:CSI16:1,2011-09-04T03:00:00Z,29.4012,-89.0355,26.66,11111222 
WAVCIS,ioos:station:WAVCIS:CSI16:1,2011-09-04T04:00:00Z,29.4012,-89.0355,27.71,11111222 
WAVCIS,ioos:station:WAVCIS:CSI16:1,2011-09-04T05:00:00Z,29.4012,-89.0355,26.9,11111222 
WAVCIS,ioos:station:WAVCIS:CSI16:1,2011-09-04T06:00:00Z,29.4012,-89.0355,27.53,11111222 
WAVCIS,ioos:station:WAVCIS:CSI16:1,2011-09-04T07:00:00Z,29.4012,-89.0355,27.36,11111222 
WAVCIS,ioos:station:WAVCIS:CSI16:1,2011-09-04T08:00:00Z,29.4012,-89.0355,27.91,11111222 
WAVCIS,ioos:station:WAVCIS:CSI16:1,2011-09-04T09:00:00Z,29.4012,-89.0355,28.25,11111222 
WAVCIS,ioos:station:WAVCIS:CSI16:1,2011-09-04T10:00:00Z,29.4012,-89.0355,28.49,11111222 
WAVCIS,ioos:station:WAVCIS:CSI16:1,2011-09-04T11:00:00Z,29.4012,-89.0355,28.27,11111222 
WAVCIS,ioos:station:WAVCIS:CSI16:1,2011-09-04T12:00:00Z,29.4012,-89.0355,28.14,11111222 
WAVCIS,ioos:station:WAVCIS:CSI16:1,2011-09-04T13:00:00Z,29.4012,-89.0355,28.52,11111222 
WAVCIS,ioos:station:WAVCIS:CSI16:1,2011-09-04T14:00:00Z,29.4012,-89.0355,28.72,11111222 
WAVCIS,ioos:station:WAVCIS:CSI16:1,2011-09-04T15:00:00Z,29.4012,-89.0355,28.77,11111222 
WAVCIS,ioos:station:WAVCIS:CSI16:1,2011-09-04T16:00:00Z,29.4012,-89.0355,28.85,11111222 
WAVCIS,ioos:station:WAVCIS:CSI16:1,2011-09-04T17:00:00Z,29.4012,-89.0355,28.37,11111222 
WAVCIS,ioos:station:WAVCIS:CSI16:1,2011-09-04T18:00:00Z,29.4012,-89.0355,27.94,11111222 
WAVCIS,ioos:station:WAVCIS:CSI16:1,2011-09-04T19:00:00Z,29.4012,-89.0355,24.31,11111222 
WAVCIS,ioos:station:WAVCIS:CSI16:1,2011-09-04T20:00:00Z,29.4012,-89.0355,24.57,11111222 
WAVCIS,ioos:station:WAVCIS:CSI16:1,2011-09-04T21:00:00Z,29.4012,-89.0355,26.64,11111222 
WAVCIS,ioos:station:WAVCIS:CSI16:1,2011-09-04T22:00:00Z,29.4012,-89.0355,27.52,11111222 
WAVCIS,ioos:station:WAVCIS:CSI16:1,2011-09-04T23:00:00Z,29.4012,-89.0355,27.51,11111222 
WAVCIS,ioos:station:WAVCIS:CSI16:1,2011-09-05T00:00:00Z,29.4012,-89.0355,27.52,11111222 
WAVCIS,ioos:station:WAVCIS:CSI16:1,2011-09-05T01:00:00Z,29.4012,-89.0355,27.74,11111222 
WAVCIS,ioos:station:WAVCIS:CSI16:1,2011-09-05T02:00:00Z,29.4012,-89.0355,27.96,11111222 
WAVCIS,ioos:station:WAVCIS:CSI16:1,2011-09-05T03:00:00Z,29.4012,-89.0355,27.81,11111222 
WAVCIS,ioos:station:WAVCIS:CSI16:1,2011-09-05T04:00:00Z,29.4012,-89.0355,27.83,11111222 
WAVCIS,ioos:station:WAVCIS:CSI16:1,2011-09-05T05:00:00Z,29.4012,-89.0355,27.25,11111222 
WAVCIS,ioos:station:WAVCIS:CSI16:1,2011-09-05T06:00:00Z,29.4012,-89.0355,27.63,11111222 
WAVCIS,ioos:station:WAVCIS:CSI16:1,2011-09-05T07:00:00Z,29.4012,-89.0355,28.0,11111222 
WAVCIS,ioos:station:WAVCIS:CSI16:1,2011-09-05T08:00:00Z,29.4012,-89.0355,28.31,11111222 
WAVCIS,ioos:station:WAVCIS:CSI16:1,2011-09-05T09:00:00Z,29.4012,-89.0355,28.06,11111222 
WAVCIS,ioos:station:WAVCIS:CSI16:1,2011-09-05T10:00:00Z,29.4012,-89.0355,27.07,11111222 
WAVCIS,ioos:station:WAVCIS:CSI16:1,2011-09-05T11:00:00Z,29.4012,-89.0355,27.21,11111222 
WAVCIS,ioos:station:WAVCIS:CSI16:1,2011-09-05T12:00:00Z,29.4012,-89.0355,26.85,11111222 
WAVCIS,ioos:station:WAVCIS:CSI16:1,2011-09-05T13:00:00Z,29.4012,-89.0355,27.1,11111222 
WAVCIS,ioos:station:WAVCIS:CSI16:1,2011-09-05T14:00:00Z,29.4012,-89.0355,24.52,11111222 
WAVCIS,ioos:station:WAVCIS:CSI16:1,2011-09-05T15:00:00Z,29.4012,-89.0355,26.51,11111222 
WAVCIS,ioos:station:WAVCIS:CSI16:1,2011-09-05T16:00:00Z,29.4012,-89.0355,24.63,11111222 
WAVCIS,ioos:station:WAVCIS:CSI16:1,2011-09-05T17:00:00Z,29.4012,-89.0355,23.79,11111222 
WAVCIS,ioos:station:WAVCIS:CSI16:1,2011-09-05T18:00:00Z,29.4012,-89.0355,23.68,11111222 
WAVCIS,ioos:station:WAVCIS:CSI16:1,2011-09-05T19:00:00Z,29.4012,-89.0355,24.08,11111222 
WAVCIS,ioos:station:WAVCIS:CSI16:1,2011-09-05T20:00:00Z,29.4012,-89.0355,24.87,11111222 
WAVCIS,ioos:station:WAVCIS:CSI16:1,2011-09-05T21:00:00Z,29.4012,-89.0355,23.87,11111222 
WAVCIS,ioos:station:WAVCIS:CSI16:1,2011-09-05T22:00:00Z,29.4012,-89.0355,24.28,11111222 
WAVCIS,ioos:station:WAVCIS:CSI16:1,2011-09-05T23:00:00Z,29.4012,-89.0355,24.28,11111222 
WAVCIS,ioos:station:WAVCIS:CSI16:1,2011-09-06T00:00:00Z,29.4012,-89.0355,24.15,11111222 
WAVCIS,ioos:station:WAVCIS:CSI16:1,2011-09-06T01:00:00Z,29.4012,-89.0355,23.13,11111222 
WAVCIS,ioos:station:WAVCIS:CSI16:1,2011-09-06T02:00:00Z,29.4012,-89.0355,22.45,11111222 
WAVCIS,ioos:station:WAVCIS:CSI16:1,2011-09-06T03:00:00Z,29.4012,-89.0355,21.84,11111222 
WAVCIS,ioos:station:WAVCIS:CSI16:1,2011-09-06T04:00:00Z,29.4012,-89.0355,21.52,11111222 
WAVCIS,ioos:station:WAVCIS:CSI16:1,2011-09-06T05:00:00Z,29.4012,-89.0355,21.26,11111222 
WAVCIS,ioos:station:WAVCIS:CSI16:1,2011-09-06T06:00:00Z,29.4012,-89.0355,20.97,11111222 
WAVCIS,ioos:station:WAVCIS:CSI16:1,2011-09-06T07:00:00Z,29.4012,-89.0355,21.15,11111222 
WAVCIS,ioos:station:WAVCIS:CSI16:1,2011-09-06T08:00:00Z,29.4012,-89.0355,21.18,11111222 
WAVCIS,ioos:station:WAVCIS:CSI16:1,2011-09-06T09:00:00Z,29.4012,-89.0355,20.82,11111222 
WAVCIS,ioos:station:WAVCIS:CSI16:1,2011-09-06T10:00:00Z,29.4012,-89.0355,20.62,11111222 
WAVCIS,ioos:station:WAVCIS:CSI16:1,2011-09-06T11:00:00Z,29.4012,-89.0355,20.43,11111222 
WAVCIS,ioos:station:WAVCIS:CSI16:1,2011-09-06T12:00:00Z,29.4012,-89.0355,20.29,11111222 
WAVCIS,ioos:station:WAVCIS:CSI16:1,2011-09-06T13:00:00Z,29.4012,-89.0355,20.38,11111222 
WAVCIS,ioos:station:WAVCIS:CSI16:1,2011-09-06T14:00:00Z,29.4012,-89.0355,20.49,11111222 
WAVCIS,ioos:station:WAVCIS:CSI16:1,2011-09-06T15:00:00Z,29.4012,-89.0355,20.12,11111222 
WAVCIS,ioos:station:WAVCIS:CSI16:1,2011-09-06T16:00:00Z,29.4012,-89.0355,20.05,11111222 
WAVCIS,ioos:station:WAVCIS:CSI16:1,2011-09-06T17:00:00Z,29.4012,-89.0355,20.47,11111222 
WAVCIS,ioos:station:WAVCIS:CSI16:1,2011-09-06T18:00:00Z,29.4012,-89.0355,20.41,11111222 
WAVCIS,ioos:station:WAVCIS:CSI16:1,2011-09-06T19:00:00Z,29.4012,-89.0355,20.74,11111222 
WAVCIS,ioos:station:WAVCIS:CSI16:1,2011-09-06T20:00:00Z,29.4012,-89.0355,21.23,11111222 
WAVCIS,ioos:station:WAVCIS:CSI16:1,2011-09-06T21:00:00Z,29.4012,-89.0355,21.82,11111222 
WAVCIS,ioos:station:WAVCIS:CSI16:1,2011-09-06T22:00:00Z,29.4012,-89.0355,22.62,11111222 
WAVCIS,ioos:station:WAVCIS:CSI16:1,2011-09-06T23:00:00Z,29.4012,-89.0355,23.38,11111222 
WAVCIS,ioos:station:WAVCIS:CSI16:1,2011-09-07T00:00:00Z,29.4012,-89.0355,23.34,11111222 
WAVCIS,ioos:station:WAVCIS:CSI16:1,2011-09-07T01:00:00Z,29.4012,-89.0355,23.38,11111222 
WAVCIS,ioos:station:WAVCIS:CSI16:1,2011-09-07T02:00:00Z,29.4012,-89.0355,24.37,11111222 
WAVCIS,ioos:station:WAVCIS:CSI16:1,2011-09-07T03:00:00Z,29.4012,-89.0355,24.82,11111222 
WAVCIS,ioos:station:WAVCIS:CSI16:1,2011-09-07T04:00:00Z,29.4012,-89.0355,29.2,11111222 
WAVCIS,ioos:station:WAVCIS:CSI16:1,2011-09-07T05:00:00Z,29.4012,-89.0355,29.23,11111222 
WAVCIS,ioos:station:WAVCIS:CSI16:1,2011-09-07T06:00:00Z,29.4012,-89.0355,30.38,11111222 
WAVCIS,ioos:station:WAVCIS:CSI16:1,2011-09-07T07:00:00Z,29.4012,-89.0355,29.25,11111222 
WAVCIS,ioos:station:WAVCIS:CSI16:1,2011-09-07T08:00:00Z,29.4012,-89.0355,29.22,11111222 
WAVCIS,ioos:station:WAVCIS:CSI16:1,2011-09-07T09:00:00Z,29.4012,-89.0355,30.65,11111222 
WAVCIS,ioos:station:WAVCIS:CSI16:1,2011-09-07T10:00:00Z,29.4012,-89.0355,29.27,11111222 
WAVCIS,ioos:station:WAVCIS:CSI16:1,2011-09-07T11:00:00Z,29.4012,-89.0355,27.35,11111222 
WAVCIS,ioos:station:WAVCIS:CSI16:1,2011-09-07T12:00:00Z,29.4012,-89.0355,26.97,11111222 
WAVCIS,ioos:station:WAVCIS:CSI16:1,2011-09-07T13:00:00Z,29.4012,-89.0355,29.65,11111222 
WAVCIS,ioos:station:WAVCIS:CSI16:1,2011-09-07T14:00:00Z,29.4012,-89.0355,29.85,11111222 
WAVCIS,ioos:station:WAVCIS:CSI16:1,2011-09-07T15:00:00Z,29.4012,-89.0355,30.56,11111222 
WAVCIS,ioos:station:WAVCIS:CSI16:1,2011-09-07T16:00:00Z,29.4012,-89.0355,28.08,11111222 
WAVCIS,ioos:station:WAVCIS:CSI16:1,2011-09-07T17:00:00Z,29.4012,-89.0355,25.68,11111222 
WAVCIS,ioos:station:WAVCIS:CSI16:1,2011-09-07T18:00:00Z,29.4012,-89.0355,27.47,11111222 
WAVCIS,ioos:station:WAVCIS:CSI16:1,2011-09-07T19:00:00Z,29.4012,-89.0355,23.58,11111222 
WAVCIS,ioos:station:WAVCIS:CSI16:1,2011-09-07T20:00:00Z,29.4012,-89.0355,22.42,11111222 
WAVCIS,ioos:station:WAVCIS:CSI16:1,2011-09-07T21:00:00Z,29.4012,-89.0355,25.31,11111222 
WAVCIS,ioos:station:WAVCIS:CSI16:1,2011-09-07T22:00:00Z,29.4012,-89.0355,25.24,11111222 
WAVCIS,ioos:station:WAVCIS:CSI16:1,2011-09-07T23:00:00Z,29.4012,-89.0355,24.06,11111222 
WAVCIS,ioos:station:WAVCIS:CSI16:1,2011-09-08T00:00:00Z,29.4012,-89.0355,23.69,11111222 
WAVCIS,ioos:station:WAVCIS:CSI16:1,2011-09-08T01:00:00Z,29.4012,-89.0355,23.41,11111222 
WAVCIS,ioos:station:WAVCIS:CSI16:1,2011-09-08T02:00:00Z,29.4012,-89.0355,23.57,11111222 
WAVCIS,ioos:station:WAVCIS:CSI16:1,2011-09-08T03:00:00Z,29.4012,-89.0355,23.54,11111222 
WAVCIS,ioos:station:WAVCIS:CSI16:1,2011-09-08T04:00:00Z,29.4012,-89.0355,23.5,11111222 
WAVCIS,ioos:station:WAVCIS:CSI16:1,2011-09-08T05:00:00Z,29.4012,-89.0355,23.18,11111222 
WAVCIS,ioos:station:WAVCIS:CSI16:1,2011-09-08T06:00:00Z,29.4012,-89.0355,24.27,11111222 
WAVCIS,ioos:station:WAVCIS:CSI16:1,2011-09-08T07:00:00Z,29.4012,-89.0355,31.34,11111222 
WAVCIS,ioos:station:WAVCIS:CSI16:1,2011-09-08T08:00:00Z,29.4012,-89.0355,28.18,11111222 
WAVCIS,ioos:station:WAVCIS:CSI16:1,2011-09-08T09:00:00Z,29.4012,-89.0355,24.46,11111222 
WAVCIS,ioos:station:WAVCIS:CSI16:1,2011-09-08T10:00:00Z,29.4012,-89.0355,27.35,11111222 
WAVCIS,ioos:station:WAVCIS:CSI16:1,2011-09-08T11:00:00Z,29.4012,-89.0355,30.64,11111222 
WAVCIS,ioos:station:WAVCIS:CSI16:1,2011-09-08T12:00:00Z,29.4012,-89.0355,28.52,11111222 
WAVCIS,ioos:station:WAVCIS:CSI16:1,2011-09-08T13:00:00Z,29.4012,-89.0355,27.57,11111222 
WAVCIS,ioos:station:WAVCIS:CSI16:1,2011-09-08T14:00:00Z,29.4012,-89.0355,29.81,11111222 
WAVCIS,ioos:station:WAVCIS:CSI16:1,2011-09-08T15:00:00Z,29.4012,-89.0355,30.34,11111222 
WAVCIS,ioos:station:WAVCIS:CSI16:1,2011-09-08T16:00:00Z,29.4012,-89.0355,28.26,11111222 
WAVCIS,ioos:station:WAVCIS:CSI16:1,2011-09-08T17:00:00Z,29.4012,-89.0355,31.3,11111222 
WAVCIS,ioos:station:WAVCIS:CSI16:1,2011-09-08T18:00:00Z,29.4012,-89.0355,27.75,11111222 
WAVCIS,ioos:station:WAVCIS:CSI16:1,2011-09-08T19:00:00Z,29.4012,-89.0355,28.26,11111222 
WAVCIS,ioos:station:WAVCIS:CSI16:1,2011-09-08T20:00:00Z,29.4012,-89.0355,28.39,11111222 
WAVCIS,ioos:station:WAVCIS:CSI16:1,2011-09-08T21:00:00Z,29.4012,-89.0355,27.76,11111222 
WAVCIS,ioos:station:WAVCIS:CSI16:1,2011-09-08T22:00:00Z,29.4012,-89.0355,24.66,11111222 
WAVCIS,ioos:station:WAVCIS:CSI16:1,2011-09-08T23:00:00Z,29.4012,-89.0355,25.26,11111222 
WAVCIS,ioos:station:WAVCIS:CSI16:1,2011-09-09T00:00:00Z,29.4012,-89.0355,24.22,11111222 
WAVCIS,ioos:station:WAVCIS:CSI16:1,2011-09-09T01:00:00Z,29.4012,-89.0355,23.63,11111222 
WAVCIS,ioos:station:WAVCIS:CSI16:1,2011-09-09T02:00:00Z,29.4012,-89.0355,23.69,11111222 
WAVCIS,ioos:station:WAVCIS:CSI16:1,2011-09-09T03:00:00Z,29.4012,-89.0355,23.56,11111222 
WAVCIS,ioos:station:WAVCIS:CSI16:1,2011-09-09T04:00:00Z,29.4012,-89.0355,23.39,11111222 
WAVCIS,ioos:station:WAVCIS:CSI16:1,2011-09-09T05:00:00Z,29.4012,-89.0355,23.08,11111222 
WAVCIS,ioos:station:WAVCIS:CSI16:1,2011-09-09T06:00:00Z,29.4012,-89.0355,22.86,11111222 
WAVCIS,ioos:station:WAVCIS:CSI16:1,2011-09-09T07:00:00Z,29.4012,-89.0355,22.95,11111222 
WAVCIS,ioos:station:WAVCIS:CSI16:1,2011-09-09T08:00:00Z,29.4012,-89.0355,22.89,11111222 
WAVCIS,ioos:station:WAVCIS:CSI16:1,2011-09-09T09:00:00Z,29.4012,-89.0355,22.58,11111222 
WAVCIS,ioos:station:WAVCIS:CSI16:1,2011-09-09T10:00:00Z,29.4012,-89.0355,22.59,11111222 
WAVCIS,ioos:station:WAVCIS:CSI16:1,2011-09-09T11:00:00Z,29.4012,-89.0355,22.73,11111222 
WAVCIS,ioos:station:WAVCIS:CSI16:1,2011-09-09T12:00:00Z,29.4012,-89.0355,22.99,11111222 
WAVCIS,ioos:station:WAVCIS:CSI16:1,2011-09-09T13:00:00Z,29.4012,-89.0355,23.78,11111222 
WAVCIS,ioos:station:WAVCIS:CSI16:1,2011-09-09T14:00:00Z,29.4012,-89.0355,23.81,11111222 
WAVCIS,ioos:station:WAVCIS:CSI16:1,2011-09-09T15:00:00Z,29.4012,-89.0355,23.84,11111222 
WAVCIS,ioos:station:WAVCIS:CSI16:1,2011-09-09T16:00:00Z,29.4012,-89.0355,24.46,11111222 
WAVCIS,ioos:station:WAVCIS:CSI16:1,2011-09-09T17:00:00Z,29.4012,-89.0355,24.64,11111222 
WAVCIS,ioos:station:WAVCIS:CSI16:1,2011-09-09T18:00:00Z,29.4012,-89.0355,24.57,11111222 
WAVCIS,ioos:station:WAVCIS:CSI16:1,2011-09-09T19:00:00Z,29.4012,-89.0355,24.58,11111222 
WAVCIS,ioos:station:WAVCIS:CSI16:1,2011-09-09T20:00:00Z,29.4012,-89.0355,25.23,11111222 
WAVCIS,ioos:station:WAVCIS:CSI16:1,2011-09-09T21:00:00Z,29.4012,-89.0355,25.83,11111222 
WAVCIS,ioos:station:WAVCIS:CSI16:1,2011-09-09T22:00:00Z,29.4012,-89.0355,25.72,11111222 
WAVCIS,ioos:station:WAVCIS:CSI16:1,2011-09-09T23:00:00Z,29.4012,-89.0355,26.17,11111222 
WAVCIS,ioos:station:WAVCIS:CSI16:1,2011-09-10T00:00:00Z,29.4012,-89.0355,26.17,11111222 
WAVCIS,ioos:station:WAVCIS:CSI16:1,2011-09-10T01:00:00Z,29.4012,-89.0355,24.52,11111222 
WAVCIS,ioos:station:WAVCIS:CSI16:1,2011-09-10T02:00:00Z,29.4012,-89.0355,24.29,11111222 
WAVCIS,ioos:station:WAVCIS:CSI16:1,2011-09-10T03:00:00Z,29.4012,-89.0355,24.05,11111222 
WAVCIS,ioos:station:WAVCIS:CSI16:1,2011-09-10T04:00:00Z,29.4012,-89.0355,24.2,11111222 
WAVCIS,ioos:station:WAVCIS:CSI16:1,2011-09-10T05:00:00Z,29.4012,-89.0355,23.99,11111222 
WAVCIS,ioos:station:WAVCIS:CSI16:1,2011-09-10T06:00:00Z,29.4012,-89.0355,23.79,11111222 
WAVCIS,ioos:station:WAVCIS:CSI16:1,2011-09-10T07:00:00Z,29.4012,-89.0355,23.52,11111222 
WAVCIS,ioos:station:WAVCIS:CSI16:1,2011-09-10T08:00:00Z,29.4012,-89.0355,23.5,11111222 
WAVCIS,ioos:station:WAVCIS:CSI16:1,2011-09-10T09:00:00Z,29.4012,-89.0355,23.84,11111222 
WAVCIS,ioos:station:WAVCIS:CSI16:1,2011-09-10T10:00:00Z,29.4012,-89.0355,23.64,11111222 
WAVCIS,ioos:station:WAVCIS:CSI16:1,2011-09-10T11:00:00Z,29.4012,-89.0355,23.42,11111222 
WAVCIS,ioos:station:WAVCIS:CSI16:1,2011-09-10T12:00:00Z,29.4012,-89.0355,23.34,11111222 
WAVCIS,ioos:station:WAVCIS:CSI16:1,2011-09-10T13:00:00Z,29.4012,-89.0355,24.84,11111222 
WAVCIS,ioos:station:WAVCIS:CSI16:1,2011-09-10T14:00:00Z,29.4012,-89.0355,25.04,11111222 
WAVCIS,ioos:station:WAVCIS:CSI16:1,2011-09-10T15:00:00Z,29.4012,-89.0355,25.09,11111222 
WAVCIS,ioos:station:WAVCIS:CSI16:1,2011-09-10T16:00:00Z,29.4012,-89.0355,24.64,11111222 
WAVCIS,ioos:station:WAVCIS:CSI16:1,2011-09-10T17:00:00Z,29.4012,-89.0355,24.49,11111222 
WAVCIS,ioos:station:WAVCIS:CSI16:1,2011-09-10T18:00:00Z,29.4012,-89.0355,25.45,11111222 
WAVCIS,ioos:station:WAVCIS:CSI16:1,2011-09-10T19:00:00Z,29.4012,-89.0355,25.7,11111222 
WAVCIS,ioos:station:WAVCIS:CSI16:1,2011-09-10T20:00:00Z,29.4012,-89.0355,26.24,11111222 
WAVCIS,ioos:station:WAVCIS:CSI16:1,2011-09-10T21:00:00Z,29.4012,-89.0355,25.41,11111222 
WAVCIS,ioos:station:WAVCIS:CSI16:1,2011-09-10T22:00:00Z,29.4012,-89.0355,25.87,11111222 
WAVCIS,ioos:station:WAVCIS:CSI16:1,2011-09-10T23:00:00Z,29.4012,-89.0355,26.2,11111222 
WAVCIS,ioos:station:WAVCIS:CSI16:1,2011-09-11T00:00:00Z,29.4012,-89.0355,26.55,11111222 
WAVCIS,ioos:station:WAVCIS:CSI16:1,2011-09-11T01:00:00Z,29.4012,-89.0355,25.13,11111222 
WAVCIS,ioos:station:WAVCIS:CSI16:1,2011-09-11T02:00:00Z,29.4012,-89.0355,25.01,11111222 
WAVCIS,ioos:station:WAVCIS:CSI16:1,2011-09-11T03:00:00Z,29.4012,-89.0355,25.11,11111222 
WAVCIS,ioos:station:WAVCIS:CSI16:1,2011-09-11T04:00:00Z,29.4012,-89.0355,25.03,11111222 
WAVCIS,ioos:station:WAVCIS:CSI16:1,2011-09-11T05:00:00Z,29.4012,-89.0355,25.14,11111222 
WAVCIS,ioos:station:WAVCIS:CSI16:1,2011-09-11T06:00:00Z,29.4012,-89.0355,25.15,11111222 
WAVCIS,ioos:station:WAVCIS:CSI16:1,2011-09-11T07:00:00Z,29.4012,-89.0355,24.88,11111222 
WAVCIS,ioos:station:WAVCIS:CSI16:1,2011-09-11T08:00:00Z,29.4012,-89.0355,24.83,11111222 
WAVCIS,ioos:station:WAVCIS:CSI16:1,2011-09-11T09:00:00Z,29.4012,-89.0355,24.59,11111222 
WAVCIS,ioos:station:WAVCIS:CSI16:1,2011-09-11T10:00:00Z,29.4012,-89.0355,24.66,11111222 
WAVCIS,ioos:station:WAVCIS:CSI16:1,2011-09-11T11:00:00Z,29.4012,-89.0355,24.45,11111222 
WAVCIS,ioos:station:WAVCIS:CSI16:1,2011-09-11T12:00:00Z,29.4012,-89.0355,24.46,11111222 
WAVCIS,ioos:station:WAVCIS:CSI16:1,2011-09-11T13:00:00Z,29.4012,-89.0355,24.37,11111222 
WAVCIS,ioos:station:WAVCIS:CSI16:1,2011-09-11T14:00:00Z,29.4012,-89.0355,24.82,11111222 
WAVCIS,ioos:station:WAVCIS:CSI16:1,2011-09-11T15:00:00Z,29.4012,-89.0355,25.62,11111222 
WAVCIS,ioos:station:WAVCIS:CSI16:1,2011-09-11T16:00:00Z,29.4012,-89.0355,26.01,11111222 
WAVCIS,ioos:station:WAVCIS:CSI16:1,2011-09-11T17:00:00Z,29.4012,-89.0355,26.99,11111222 
WAVCIS,ioos:station:WAVCIS:CSI16:1,2011-09-11T18:00:00Z,29.4012,-89.0355,26.22,11111222 
WAVCIS,ioos:station:WAVCIS:CSI16:1,2011-09-11T19:00:00Z,29.4012,-89.0355,25.85,11111222 
WAVCIS,ioos:station:WAVCIS:CSI16:1,2011-09-11T20:00:00Z,29.4012,-89.0355,25.91,11111222 
WAVCIS,ioos:station:WAVCIS:CSI16:1,2011-09-11T21:00:00Z,29.4012,-89.0355,26.73,11111222 
WAVCIS,ioos:station:WAVCIS:CSI16:1,2011-09-11T22:00:00Z,29.4012,-89.0355,26.55,11111222 
WAVCIS,ioos:station:WAVCIS:CSI16:1,2011-09-11T23:00:00Z,29.4012,-89.0355,28.87,11111222 
WAVCIS,ioos:station:WAVCIS:CSI16:1,2011-09-12T00:00:00Z,29.4012,-89.0355,28.54,11111222 
WAVCIS,ioos:station:WAVCIS:CSI16:1,2011-09-12T01:00:00Z,29.4012,-89.0355,25.38,11111222 
WAVCIS,ioos:station:WAVCIS:CSI16:1,2011-09-12T02:00:00Z,29.4012,-89.0355,25.4,11111222 
WAVCIS,ioos:station:WAVCIS:CSI16:1,2011-09-12T03:00:00Z,29.4012,-89.0355,25.46,11111222 
WAVCIS,ioos:station:WAVCIS:CSI16:1,2011-09-12T04:00:00Z,29.4012,-89.0355,25.61,11111222 